Regional Weather Roundup
Issued by NWS

Home | Current Version | Previous Version | Graphics & Text | Print | Product List | Glossary On
Versions: 1 2 3 4 5 6 7 8 9 10 11 12 13 14 15 16 17 18 19 20 21 22 23 24 25 26 27 28 29 30 31 32 33 34 35 36 37 38 39 40 41 42 43 44 45 46 47 48 49 50
000
ASUS43 KMKX 211325
RWRWI

WISCONSIN REGIONAL WEATHER ROUNDUP
NATIONAL WEATHER SERVICE MILWAUKEE/SULLIVAN WI
700 AM CST FRI NOV 21 2014

NOTE: "FAIR" INDICATES FEW OR NO CLOUDS BELOW 12,000 FEET WITH NO
SIGNIFICANT WEATHER AND/OR OBSTRUCTIONS TO VISIBILITY.

WIZ001-002-006>008-014>016-023>028-211400-
NORTHWEST WISCONSIN

CITY           SKY/WX    TMP DP  RH WIND       PRES   REMARKS
SUPERIOR ARPT  MOCLDY     3  -2  79 W5        30.18F WCI  -7
ASHLAND        PTCLDY     3  -2  79 S3        30.20F
HAYWARD        PTCLDY    -8 -13  78 SW3       30.19F
SIREN          PTCLDY     2  -2  85 S5        30.19S WCI  -8
CUMBERLAND     PTCLDY    -8 -13  77 SE3       30.20S
RICE LAKE      PTCLDY    -3  -8  82 CALM      30.23F
CHETEK         PTCLDY    -6  -9  85 E5        30.24S WCI -17
LADYSMITH      CLEAR     -2  -5  84 SE5       30.24F WCI -12
EAU CLAIRE     PTCLDY     0  -6  76 CALM      30.28S
MENOMONIE      PTCLDY     0  -4  83 E7        30.26F WCI -13
NEW RICHMOND   PTCLDY     4   0  83 SE5       30.22S WCI  -6
OSCEOLA        PTCLDY     5   0  79 S7        30.25S WCI  -7
$$

WIZ003>005-009-010-017-018-211400-
NORTH CENTRAL WISCONSIN

CITY           SKY/WX    TMP DP  RH WIND       PRES   REMARKS
MANITOWISH WTR PTCLDY    -1  -4  84 S5        30.18S WCI -11
ARBOR VITAE    CLEAR      3  -3  79 CALM      30.20R
WOODRUFF       CLEAR      3  -3  79 CALM      30.20R
RHINELANDER    HAZE       2  -3  80 S3        30.22R VSB 3/4
EAGLE RIVER    PTCLDY     0  -5  79 CALM      30.20S
LAND O LAKES   MOCLDY    -2  -5  84 CALM      30.19F
PHILLIPS       PTCLDY     0  -4  84 SW5       30.20S WCI -10
TOMAHAWK       PTCLDY    -2  -6  84 CALM      30.23S
MEDFORD        PTCLDY    -6 -10  82 S6        30.23R WCI -19
MERRILL        PTCLDY    -4  -8  84 CALM      30.25S
$$

WIZ029-030-035-036-043>047-211400-
CENTRAL WISCONSIN

CITY           SKY/WX    TMP DP  RH WIND       PRES   REMARKS
WAUSAU         PTCLDY     0  -5  79 E5        30.26F WCI -10
MOSINEE        CLEAR      0  -4  85 S5        30.28F WCI -10
MARSHFIELD     MOCLDY    -3  -7  82 SW6       30.28S WCI -15
STEVENS POINT  PTCLDY    -3  -6  84 CALM      30.31S
WAUPACA        PTCLDY     3  -2  79 S3        30.35S
WAUTOMA        PTCLDY    -7 -12  78 CALM      30.36S
WISC RAPIDS    PTCLDY    -3 -10  72 SW3       30.33F
CAMP DOUGLAS   PTCLDY    -2  -4  92 E6        30.34R WCI -14
$$

WIZ011>013-019>022-031-037>040-048>050-211400-
NORTHEAST WISCONSIN

CITY           SKY/WX    TMP DP  RH WIND       PRES   REMARKS
ANTIGO         CLOUDY     0  -4  85 CALM      30.25R
SHAWANO        FAIR       7   1  77 CALM      30.34S
OCONTO         MOCLDY     7   1  77 SW6       30.35F WCI  -4
STURGEON BAY   MOCLDY    12   7  79 W7        30.34R WCI   2
GREEN BAY      PTCLDY     8   1  73 SW5       30.36S WCI   0
MANITOWOC      PTCLDY     9   4  80 W5        30.38R WCI   1
APPLETON       MOCLDY     5   0  78 VRB3      30.35S
CLINTONVILLE   PTCLDY     5   1  85 S3        30.34S
OSHKOSH        MOCLDY     4  -2  76 SW5       30.36S WCI  -5
$$

WIZ032>034-041-042-053>061-211400-
SOUTHWEST WISCONSIN

CITY           SKY/WX    TMP DP  RH WIND       PRES   REMARKS
LA CROSSE      PTCLDY     5   0  79 SE6       30.34S WCI  -6
SPARTA         PTCLDY    -7 -11  83 CALM      30.34S
VIROQUA        PTCLDY     7   2  82 SE7       30.29S WCI  -5
BOSCOBEL       PTCLDY    -2  -7  79 CALM      30.39R
PRAIRIE DU CHI PTCLDY     5   1  83 CALM      30.37S
PLATTEVILLE    PTCLDY     6   2  85 CALM      30.37R
$$

WIZ056-057-062-063-064-067-068-211400-
SOUTH CENTRAL WISCONSIN

CITY           SKY/WX    TMP DP  RH WIND       PRES   REMARKS
REEDSBURG      PTCLDY     0  -3  85 CALM      30.35R
BARABOO/DELLS  PTCLDY     2  -3  79 S3        30.35R
LONE ROCK      PTCLDY     2  -5  72 CALM      30.40R
MINERAL POINT  PTCLDY     5   1  85 S3        30.34R
MADISON        PTCLDY     4  -1  80 CALM      30.37R
MIDDLETON      PTCLDY     3  -1  81 CALM      30.38R
WATERTOWN      MOCLDY     1  -2  84 CALM      30.37F
MONROE         CLEAR     10   5  79 SE7       30.36R WCI   0
JANESVILLE     CLEAR      5   0  78 CALM      30.29R
$$

WIZ051-052-058>065-066-070>072-211400-
SOUTHEAST WISCONSIN

CITY           SKY/WX    TMP DP  RH WIND       PRES   REMARKS
MILWAUKEE      PTCLDY    10   0  63 SW6       30.40R WCI   0
WAUKESHA       CLEAR      5   0  78 SW5       30.39R WCI  -4
MILWAUKEE/TIMM CLEAR      9   0  66 CALM      30.41R
RACINE         PTCLDY     9   0  67 W6        30.42R WCI  -1
BURLINGTON     PTCLDY     0  -4  85 CALM      30.40R
KENOSHA        PTCLDY     8   1  73 SW5       30.41R WCI   0
FOND DU LAC    MOCLDY     3  -3  76 CALM      30.38R
SHEBOYGAN      MOCLDY     6   1  80 SW5       30.38R WCI  -3
WEST BEND      MOCLDY     5   1  85 CALM      30.37S
JUNEAU         MOCLDY     3  -3  79 CALM      30.38S
$$

LSZ147-162-211400-
LAKE SUPERIOR

STATION/POSITION TIME  TEMP    WIND        PRES    WAVE
                       AIR SEA DIR/SP/G            HT/PER
                 (UTC) (F)     (DEG/KT/KT) (MB)    (FT/S)
DEVILS ISLAND    1300   16     220/ 13/ 17 1023.7F
PORT WING        1240    8     190/  7/ 10 1022.4F
SAXON HARBOR     1200    8     190/  5/ 10 1023.4F
$$

LMZ867-665-643>646-211400-
LAKE MICHIGAN

STATION/POSITION TIME  TEMP    WIND        PRES    WAVE
                       AIR SEA DIR/SP/G            HT/PER
                 (UTC) (F)     (DEG/KT/KT) (MB)    (FT/S)
CHAMBERS ISLAND  1200   15     230/  8/ 12 1026.8R
N MID LAKE BUOY  1250   22 42  290/ 14/ 16 1027.9R   2/ 4
NORTHPORT PIER   1307   14      CALM  /  5 1027.1R
SISTER BAY       1228          300/ 13/ 16   N/A
ALGOMA LAKESHORE 1228          310/  5/  7   N/A
KEWAUNEE LAKESHO 1300    9     280/  5/  6 1027.2R
SHEBOYGAN LAKESH 1300   11 33  260/ 10/ 11 1030.4R
PORT WASHINGTON  1240   10     290/  8/ 10 1029.8R
ATWATER BUOY     1300   15     280/ 10/ 14 1029.8R
MILWAUKEE LAKESH 1300   14     280/  5/  8   N/A
S MID LAKE BUOY  1250   24 42  290/  4/  8 1030.6R   3/ 6
KENOSHA   LAKESH 1300   12     260/  8/ 11 1029.8R
$$

TC  - TEMPERATURE IN CELSIUS
VSB - VISIBILITY IN STATUTE MILES
WCI - WIND CHILL INDEX
HX  - HEAT INDEX



USA.gov is the U.S. government's official web portal to all federal, state and local government web resources and services.